Location: �bnet
(46.9957°N, 8.4908°E)
Time: 03:51:07
(UTC+00:00)

BREEZE-M DEB (TANK) - Pass Details

Date: 11 May 2021
Orbit: 770 x 34281 km, 45.8° (Epoch: 22 June)

Event Time Altitude Azimuth Distance (km) Brightness Sun altitude
Rises 19:22:51 0° 278° (W) 3,442 8.2 -5.6°
Reaches altitude 10° 19:25:02 10° 276° (W) 2,329 7.1 -5.9°
Maximum altitude 19:29:11 71° 192° (SSW) 922 3.9 -6.5°
Drops below altitude 10° 19:36:40 10° 109° (ESE) 4,109 6.6 -7.5°
Enters shadow 19:38:34 - 109° (ESE) 5,020 7.1 -7.8°
